[[{"header":{"parameterUnit":"m.s-1","parameterCategory":1,"la1":30.2991,"la2":30.254,"lo1":-89.0895,"lo2":-89.0444,"dy":0.0017,"dx":0.0017,"nx":28,"ny":28,"refTime":"2024-08-17T21:00:00:Z","depth":0,"parameterNumber":2,"parameterNumberName":"U-component_of_WINDS"},"data":[0,0,0,0,0,0,0,0,0,0,0,0,0,0,0,0,0,0,0,0,0,0,0,0,0,0,0,0,0,0,0,0,0,0,0,0,0,0,0,0,0,0,0,0,0,0,0,0,0,0,0,0,0,0,0,0,0,0,0.6887,0.6887,0,0.6908,0.6908,0.6908,0.6936,0.6936,0.6937,0.6937,0.6957,0.6957,0.6958,0,0,0,0,0,0,0,0,0,0,0,0,0,0.6871,0.6871,0.6887,0.6887,0.6887,0.6907,0.6908,0.6908,0.6936,0.6936,0.6937,0.6937,0.6957,0.6957,0.6958,0,0,0,0,0,0,0,0,0,0,0,0,0,0.6883,0.6871,0.6887,0.6904,0.6905,0.6907,0.6908,0.6908,0.6935,0.6936,0.6937,0.6937,0.6957,0.6957,0.6958,0.6945,0,0,0.6958,0.6958,0,0,0,0,0,0,0,0,0.6883,0.6884,0.6901,0.6902,0.6904,0.692,0.691,0.692,0.6935,0.6924,0.6937,0.6938,0.6944,0.6945,0.6948,0.6946,0.6947,0.6958,0.6958,0.6958,0.6958,0,0,0,0,0,0,0,0.6882,0.6883,0.6895,0.6901,0.6903,0.691,0.6912,0.6912,0.693,0.6925,0.6927,0.6929,0.6945,0.6948,0.6948,0.6947,0.6958,0.6958,0.6958,0.6958,0.6935,0.6935,0,0,0,0,0,0,0.6878,0.6882,0.6894,0.6896,0.6895,0.691,0.6912,0.6914,0.693,0.6933,0.6929,0.693,0.6947,0.6948,0.6949,0.6936,0.6958,0.6958,0.6959,0.6936,0.6935,0.6934,0,0,0,0,0,0,0.6878,0.6879,0.6894,0.689,0.6892,0.6909,0.6911,0.6914,0.6916,0.6933,0.6936,0.6928,0.6948,0.6949,0.6946,0.6937,0.6958,0.6959,0.6937,0.6936,0.6935,0.6908,0,0,0,0,0,0,0.6877,0.6879,0.6874,0.6889,0.6892,0.689,0.691,0.6914,0.6917,0.6919,0.6933,0.6936,0.6948,0.6945,0.6946,0.6937,0.6959,0.6938,0.6936,0.6935,0.6909,0.6906,0.6903,0,0,0,0,0,0.6877,0.6866,0.6874,0.6875,0.6887,0.6889,0.6891,0.6906,0.6916,0.6911,0.6922,0.6935,0.6937,0.6945,0.6946,0.6937,0.6939,0.6937,0.6935,0.6911,0.6906,0.6903,0,0,0,0,0,0,0.6849,0.6868,0.6877,0.6871,0.6878,0.6894,0.6889,0.6901,0.6905,0.6907,0.6925,0.6928,0.6923,0.6929,0.6937,0.6925,0.694,0.6938,0.6921,0.6917,0.6914,0.6912,0.6959,0,0,0,0,0,0.6842,0.6843,0.6859,0.6852,0.6855,0.6871,0.6873,0.6884,0.6892,0.6895,0.6906,0.6913,0.6915,0.6917,0.692,0.691,0.6914,0.6905,0.6901,0.6899,0.6897,0.6893,0.6889,0.6929,0.6929,0.6929,0,0,0.6828,0.6838,0.6837,0.6846,0.6854,0.6854,0.6874,0.6873,0.6873,0.6895,0.6893,0.69,0.691,0.6904,0.6901,0.6909,0.6887,0.6897,0.6894,0.6894,0.6891,0.6887,0.6883,0.6928,0.6928,0.6929,0,0,0.6802,0.681,0.6805,0.6811,0.6822,0.6833,0.6831,0.6845,0.6851,0.6849,0.6866,0.6866,0.687,0.6876,0.688,0.6856,0.6869,0.6857,0.6839,0.6835,0.6832,0.6829,0.682,0.6817,0.6855,0.6855,0.6855,0,0.6783,0.6784,0.68,0.6799,0.6802,0.6822,0.6817,0.6823,0.6834,0.6836,0.6844,0.685,0.6857,0.6853,0.6847,0.6849,0.6848,0.6856,0.6831,0.6828,0.6826,0.6818,0.6815,0.6854,0.6854,0.6854,0.6854,0,0.676,0.6761,0.6755,0.6765,0.6768,0.6765,0.6781,0.6781,0.6792,0.6802,0.6799,0.6809,0.6815,0.6815,0.6825,0.6812,0.6816,0.6827,0.6843,0.682,0.6813,0.681,0.6852,0.6852,0.6853,0.6853,0,0,0.6717,0.6737,0.6735,0.674,0.6753,0.6753,0.6751,0.6756,0.6757,0.6764,0.6762,0.6765,0.6775,0.6779,0.679,0.6786,0.6767,0.6798,0.6799,0.6792,0.6753,0.6744,0.6741,0.6776,0.6775,0.6775,0.6752,0,0.6694,0.6691,0.6706,0.6699,0.6699,0.6719,0.6716,0.6724,0.6733,0.6735,0.6745,0.6747,0.676,0.6763,0.676,0.677,0.676,0.6772,0.6774,0.6774,0.6771,0.6737,0.6728,0.6706,0.675,0.6749,0.6749,0,0.6667,0.6672,0.6665,0.6679,0.668,0.6677,0.6684,0.6685,0.6694,0.6701,0.6706,0.6719,0.6717,0.6731,0.6729,0.6737,0.6739,0.6744,0.6743,0.6744,0.676,0.6737,0.67,0.6696,0.6745,0.6745,0.6745,0,0.6636,0.6642,0.6639,0.6642,0.6658,0.6656,0.6662,0.6672,0.6675,0.668,0.6682,0.6687,0.669,0.6693,0.6707,0.6716,0.6703,0.6719,0.6709,0.6708,0.6705,0.6705,0.6668,0.6706,0.6706,0.6706,0.6706,0,0.6609,0.6604,0.6625,0.6623,0.6618,0.6635,0.6629,0.6638,0.6646,0.6646,0.6663,0.6662,0.6681,0.6682,0.6693,0.6689,0.669,0.6696,0.6699,0.6694,0.6693,0.6695,0.6697,0.6705,0.6706,0.6706,0.6706,0,0.6574,0.6588,0.6586,0.6601,0.6605,0.66,0.6613,0.6612,0.6622,0.6621,0.6622,0.6638,0.664,0.6655,0.666,0.6667,0.666,0.6666,0.6657,0.6659,0.6648,0.6649,0.661,0.6606,0.6647,0.6647,0.6646,0,0.6556,0.6552,0.6567,0.6568,0.6574,0.6575,0.6578,0.6595,0.6597,0.6607,0.6604,0.6608,0.6612,0.6615,0.6627,0.6631,0.6637,0.6623,0.6638,0.6633,0.6637,0.6637,0.6636,0.662,0.662,0.6619,0.6619,0,0.6521,0.6528,0.6532,0.6538,0.654,0.6546,0.6552,0.6552,0.657,0.6571,0.6574,0.6577,0.6583,0.6587,0.6593,0.66,0.6612,0.6614,0.6612,0.6607,0.6602,0.6605,0.6648,0.6615,0.6615,0.6616,0.6616,0.6616,0.6494,0.6492,0.6502,0.6505,0.6512,0.6517,0.6517,0.6527,0.653,0.6536,0.6545,0.6547,0.6556,0.6566,0.6571,0.6572,0.658,0.6576,0.6576,0.6575,0.6572,0.6602,0.6574,0.6574,0.6574,0.6574,0.6574,0,0.6461,0.6468,0.6471,0.6479,0.6482,0.6494,0.6501,0.6502,0.6503,0.6511,0.6515,0.6518,0.6521,0.6533,0.6538,0.6536,0.6542,0.6537,0.6537,0.6539,0.6566,0.6567,0.6532,0.6532,0.6532,0.6532,0.6532,0.6532,0.6444,0.6441,0.6449,0.645,0.6457,0.6459,0.6462,0.6467,0.6473,0.6476,0.6479,0.6487,0.6496,0.6502,0.6505,0.6509,0.651,0.6502,0.6508,0.6533,0.6537,0.654,0.6542,0.6503,0.6503,0.6481,0.648,0.648]},{"header":{"parameterUnit":"m.s-1","parameterCategory":1,"la1":30.2991,"la2":30.254,"lo1":-89.0895,"lo2":-89.0444,"dy":0.0017,"dx":0.0017,"nx":28,"ny":28,"refTime":"2024-08-17T21:00:00:Z","depth":0,"parameterNumber":3,"parameterNumberName":"V-component_of_WINDS"},"data":[0,0,0,0,0,0,0,0,0,0,0,0,0,0,0,0,0,0,0,0,0,0,0,0,0,0,0,0,0,0,0,0,0,0,0,0,0,0,0,0,0,0,0,0,0,0,0,0,0,0,0,0,0,0,0,0,0,0,0.8472,0.8472,0,0.8534,0.8535,0.8536,0.8572,0.8572,0.8572,0.8572,0.8636,0.8638,0.8639,0,0,0,0,0,0,0,0,0,0,0,0,0,0.8383,0.8385,0.8472,0.8473,0.8473,0.8534,0.8535,0.8536,0.8572,0.8572,0.8572,0.8572,0.8636,0.8638,0.8639,0,0,0,0,0,0,0,0,0,0,0,0,0,0.8431,0.8385,0.8472,0.8499,0.8502,0.8534,0.8535,0.8536,0.8572,0.8572,0.8572,0.8573,0.8635,0.8637,0.864,0.865,0,0,0.8647,0.8648,0,0,0,0,0,0,0,0,0.8429,0.8435,0.8494,0.8497,0.85,0.8546,0.8527,0.8574,0.8572,0.8545,0.8572,0.8573,0.8606,0.8611,0.8622,0.8653,0.8656,0.8647,0.8648,0.8649,0.865,0,0,0,0,0,0,0,0.8425,0.8432,0.8497,0.8495,0.8499,0.8508,0.8515,0.8536,0.8574,0.8548,0.855,0.8557,0.8608,0.862,0.8624,0.8657,0.8647,0.8649,0.8651,0.8651,0.87,0.87,0,0,0,0,0,0,0.8418,0.8429,0.8495,0.8498,0.8464,0.8509,0.8517,0.8531,0.8573,0.858,0.8557,0.8559,0.8615,0.8621,0.8626,0.8641,0.8649,0.8652,0.8653,0.87,0.87,0.87,0,0,0,0,0,0,0.8416,0.8423,0.8492,0.8465,0.8474,0.851,0.8526,0.8532,0.8544,0.8581,0.8587,0.8562,0.8616,0.8623,0.8644,0.8644,0.8653,0.8655,0.87,0.87,0.87,0.8671,0,0,0,0,0,0,0.8413,0.8422,0.8426,0.8464,0.8475,0.8509,0.8526,0.8533,0.8548,0.8551,0.8587,0.8594,0.8616,0.864,0.8646,0.8647,0.8657,0.87,0.87,0.87,0.8672,0.867,0.8668,0,0,0,0,0,0.841,0.8416,0.8427,0.8434,0.8481,0.8509,0.8515,0.8541,0.8548,0.8552,0.8576,0.8593,0.8643,0.8642,0.8649,0.8651,0.87,0.87,0.87,0.8673,0.867,0.8668,0,0,0,0,0,0,0.8377,0.8421,0.8434,0.8452,0.8476,0.8515,0.8521,0.8537,0.856,0.8562,0.8593,0.8601,0.8619,0.8637,0.8635,0.8663,0.8673,0.8674,0.8651,0.8649,0.8647,0.8642,0.8659,0,0,0,0,0,0.8372,0.839,0.8428,0.8441,0.8452,0.8485,0.8497,0.8516,0.8542,0.8552,0.8577,0.8602,0.8624,0.8637,0.8659,0.8675,0.8684,0.868,0.8678,0.8676,0.8676,0.8687,0.8685,0.8699,0.8699,0.8699,0,0,0.8361,0.8388,0.8398,0.8435,0.8456,0.8474,0.8493,0.8512,0.8526,0.8555,0.8577,0.8596,0.8626,0.8644,0.8654,0.866,0.8675,0.8675,0.8674,0.8675,0.8686,0.8685,0.8684,0.8698,0.8698,0.8698,0,0,0.8352,0.8374,0.8387,0.8408,0.8439,0.8461,0.8464,0.85,0.8514,0.8536,0.8559,0.8576,0.8612,0.8632,0.8647,0.8646,0.8662,0.8652,0.8641,0.8651,0.865,0.8649,0.8649,0.8648,0.8653,0.8653,0.8653,0,0.8335,0.8364,0.8392,0.8409,0.8425,0.8453,0.8466,0.8485,0.8522,0.8532,0.8538,0.8585,0.8607,0.8631,0.863,0.8642,0.8646,0.8648,0.8648,0.8647,0.8647,0.8647,0.8647,0.8651,0.8651,0.8651,0.8652,0,0.8342,0.8361,0.8368,0.8403,0.842,0.8435,0.8465,0.8479,0.8496,0.8516,0.8539,0.8566,0.8594,0.8601,0.8618,0.8628,0.863,0.8642,0.8653,0.8644,0.8644,0.8645,0.8649,0.865,0.865,0.865,0,0,0.8313,0.8364,0.8366,0.8382,0.8419,0.8435,0.8451,0.8479,0.849,0.8514,0.8529,0.8559,0.857,0.8587,0.8606,0.8615,0.8612,0.8625,0.8626,0.8622,0.8625,0.8616,0.8616,0.8623,0.8623,0.8623,0.8623,0,0.8309,0.8341,0.8366,0.8388,0.8407,0.8434,0.8448,0.8472,0.8492,0.8511,0.8533,0.8554,0.8567,0.8577,0.8587,0.861,0.8613,0.8611,0.8637,0.8638,0.8629,0.8616,0.8607,0.8605,0.8623,0.8623,0.8623,0,0.8309,0.8332,0.8356,0.8391,0.84,0.8413,0.844,0.8458,0.8486,0.85,0.8519,0.8539,0.8558,0.8567,0.8593,0.8591,0.8603,0.8617,0.8617,0.8621,0.863,0.8619,0.8605,0.8605,0.8624,0.8624,0.8624,0,0.8286,0.8323,0.8343,0.8356,0.8397,0.8406,0.8423,0.8452,0.8467,0.8491,0.8501,0.8526,0.854,0.856,0.8586,0.859,0.861,0.8621,0.8622,0.8622,0.8625,0.8625,0.8613,0.8633,0.8633,0.8633,0.8633,0,0.8278,0.8292,0.8333,0.8345,0.8361,0.839,0.8405,0.8425,0.845,0.8466,0.8491,0.8506,0.854,0.8558,0.8579,0.8598,0.8604,0.8616,0.8621,0.8614,0.8612,0.8623,0.8623,0.8633,0.8633,0.8633,0.8633,0,0.8255,0.8283,0.8306,0.8344,0.8353,0.8363,0.8396,0.8408,0.843,0.845,0.8456,0.849,0.8513,0.8542,0.8574,0.8588,0.8605,0.8613,0.8596,0.8599,0.8598,0.8598,0.8593,0.8594,0.8613,0.8612,0.8612,0,0.8249,0.826,0.8299,0.8312,0.8329,0.8349,0.8364,0.8394,0.8409,0.8442,0.8451,0.8476,0.8498,0.8534,0.8561,0.8586,0.8595,0.8591,0.8599,0.8591,0.8595,0.8594,0.8596,0.8589,0.8589,0.8589,0.8588,0,0.8235,0.8248,0.827,0.8296,0.8314,0.8336,0.8359,0.8368,0.8402,0.8418,0.8443,0.8459,0.8493,0.8518,0.8546,0.8565,0.8582,0.8586,0.8588,0.858,0.857,0.8575,0.859,0.8586,0.8586,0.8586,0.8586,0.8587,0.822,0.8231,0.826,0.8284,0.8304,0.8325,0.8339,0.8362,0.8383,0.8413,0.8429,0.8453,0.8481,0.8521,0.8539,0.8558,0.8564,0.8567,0.8567,0.8568,0.8565,0.8566,0.8563,0.8564,0.8564,0.8564,0.8564,0,0.8207,0.8227,0.8248,0.828,0.8298,0.8314,0.834,0.8355,0.8375,0.84,0.8421,0.8449,0.8474,0.8503,0.8529,0.8539,0.8548,0.8545,0.8545,0.8549,0.8558,0.8554,0.8537,0.8537,0.8537,0.8537,0.8537,0.8537,0.8203,0.8223,0.8239,0.827,0.829,0.8314,0.8328,0.8347,0.8367,0.8398,0.8418,0.8437,0.8464,0.8492,0.8515,0.8523,0.8532,0.8527,0.8537,0.8545,0.8548,0.855,0.8546,0.8528,0.8528,0.8526,0.8526,0.8526]}]]